TimeEDT,TemperatureF,Dew PointF,Humidity,Sea Level PressureIn,VisibilityMPH,Wind Direction,Wind SpeedMPH,Gust SpeedMPH,PrecipitationIn,Events,Conditions,WindDirDegrees,DateUTC
12:53 AM,55.0,53.1,93,29.93,10.0,Calm,Calm,-,N/A,,Clear,0,2013-09-26 04:53:00
1:53 AM,55.0,53.1,93,29.93,10.0,Calm,Calm,-,N/A,,Clear,0,2013-09-26 05:53:00
2:53 AM,55.0,53.1,93,29.91,10.0,Calm,Calm,-,N/A,,Clear,0,2013-09-26 06:53:00
3:53 AM,55.9,54.0,93,29.91,10.0,Calm,Calm,-,N/A,,Clear,0,2013-09-26 07:53:00
4:53 AM,55.0,53.1,93,29.91,10.0,Calm,Calm,-,N/A,,Clear,0,2013-09-26 08:53:00
5:53 AM,55.0,53.1,93,29.92,10.0,NNW,4.6,-,N/A,,Clear,340,2013-09-26 09:53:00
6:53 AM,57.0,55.0,93,29.93,10.0,North,4.6,-,N/A,,Clear,360,2013-09-26 10:53:00
7:53 AM,60.1,57.0,90,29.95,10.0,North,3.5,-,N/A,,Clear,10,2013-09-26 11:53:00
8:53 AM,69.1,59.0,70,29.96,10.0,ENE,9.2,-,N/A,,Scattered Clouds,60,2013-09-26 12:53:00
9:53 AM,70.0,57.9,65,29.98,10.0,ENE,11.5,17.3,N/A,,Mostly Cloudy,70,2013-09-26 13:53:00
10:53 AM,71.1,57.9,63,29.99,10.0,ENE,9.2,16.1,N/A,,Clear,70,2013-09-26 14:53:00
11:53 AM,72.0,55.9,57,29.99,10.0,ENE,9.2,-,N/A,,Clear,70,2013-09-26 15:53:00
4:53 PM,70.0,59.0,68,30.00,10.0,ENE,10.4,-,N/A,,Clear,60,2013-09-26 20:53:00
5:53 PM,68.0,57.9,70,30.01,10.0,ENE,6.9,-,N/A,,Clear,60,2013-09-26 21:53:00
6:53 PM,66.0,57.9,75,30.02,10.0,ENE,6.9,-,N/A,,Clear,60,2013-09-26 22:53:00
7:53 PM,64.9,57.9,78,30.04,10.0,ENE,6.9,-,N/A,,Clear,70,2013-09-26 23:53:00
8:53 PM,64.9,59.0,81,30.05,10.0,East,8.1,-,N/A,,Partly Cloudy,80,2013-09-27 00:53:00
9:53 PM,64.9,59.0,81,30.06,10.0,East,5.8,-,N/A,,Clear,80,2013-09-27 01:53:00
10:53 PM,64.9,57.9,78,30.06,10.0,East,6.9,-,N/A,,Scattered Clouds,90,2013-09-27 02:53:00
11:53 PM,62.1,55.9,80,30.07,10.0,Calm,Calm,-,N/A,,Partly Cloudy,0,2013-09-27 03:53:00